Location: Fornova de Taro
(44.7000°N, 10.1000°E)
Time: 05:25:31
(UTC+00:00)

Cosmos 292 Rocket - Pass Details

Date: 28 September 2022
Orbit: 673 x 692 km, 74.0° (Epoch: 27 November)

Event Time Altitude Azimuth Distance (km) Brightness Sun altitude
Exits shadow 03:15:18 16° 321° (NW) 1,803 5.7 -21.5°
Drops below altitude 10° 03:17:24 10° 347° (NNW) 2,156 6.4 -21.1°
Sets 03:20:34 0° 8° (N) 3,076 7.5 -20.6°
